Weather History for Harlan, KY

Change the Weather History Date:

Wednesday, September 3, 2014

  Actual Average (KLOZ) Record (KLOZ)
Temperature  
Mean Temperature 75 °F 73 °F  
Max Temperature 84 °F 84 °F 96 °F (2011)
Min Temperature 66 °F 62 °F 47 °F (1967)
Degree Days  
Heating Degree Days 0 0  
Month to date heating degree days 0  
Since 1 July heating degree days 1  
Cooling Degree Days 10 8  
Month to date cooling degree days 24  
Growing Degree Days 25 (Base 50)    
Moisture  
Dew Point 68 °F    
Average Humidity 85    
Maximum Humidity 100    
Minimum Humidity 51    
Precipitation  
Precipitation 0.00 in 0.10 in 1.86 in (1962)
Month to date precipitation 0.31  
Sea Level Pressure  
Sea Level Pressure 30.10 in    
Wind  
Wind Speed - (North)    
Max Wind Speed -    
Max Gust Speed -    
Visibility 8 miles    
Events      
T = Trace of Precipitation, MM = Missing Value Source: NWS Daily Summary

Daily Weather History Graph

Daily Weather History Graph

Search for Another Location

Airport:

Trip Planner

Search our weather history database for the weather conditions in past years. The results will help you decide how hot, cold, wet, or windy it might be!

Date:

Astronomy

Sep. 03, 2014 Rise Set
Actual Time 7:05 AM EDT 7:58 PM EDT
Civil Twilight 6:39 AM EDT 8:25 PM EDT
Nautical Twilight 6:08 AM EDT 8:56 PM EDT
Astronomical Twilight 5:35 AM EDT 9:28 PM EDT
Moon 3:35 PM EDT (9/3) 1:03 AM EDT (9/3)
Length of Visible Light 13h 45m
Length of Day
12h 52m
Waxing Gibbous, 63% of the Moon is Illuminated
Sep 3
Waxing Gibbous
Sep 8
Full
Sep 15
Last Quarter
Sep 24
New
Oct 1
First Quarter

Hourly Weather History & Observations

Time (EDT) Temp. Heat Index Dew Point Humidity Pressure Visibility Wind Dir Wind Speed Gust Speed Precip Events Conditions
12:35 AM 68.0 °F - 68.0 °F 100% 30.08 in 2.5 mi North - - N/A   Scattered Clouds
12:55 AM 68.0 °F - 68.0 °F 100% 30.08 in 7.0 mi North - - N/A   Clear
1:15 AM 68.0 °F - 68.0 °F 100% 30.08 in 10.0 mi North - - N/A   Scattered Clouds
1:35 AM 68.0 °F - 68.0 °F 100% 30.09 in 10.0 mi North - - N/A   Scattered Clouds
1:55 AM 68.0 °F - 68.0 °F 100% 30.10 in 10.0 mi North - - N/A   Scattered Clouds
2:15 AM 68.0 °F - 68.0 °F 100% 30.09 in 10.0 mi North - - N/A   Mostly Cloudy
2:35 AM 68.0 °F - 68.0 °F 100% 30.09 in 0.5 mi North - - N/A   Overcast
2:55 AM 68.0 °F - 68.0 °F 100% 30.08 in 3.0 mi North - - N/A   Mostly Cloudy
3:15 AM 68.0 °F - 68.0 °F 100% 30.07 in 10.0 mi North - - N/A   Scattered Clouds
3:35 AM 68.0 °F - 68.0 °F 100% 30.07 in 2.0 mi North - - N/A   Scattered Clouds
3:55 AM 68.0 °F - 68.0 °F 100% 30.06 in 7.0 mi North - - N/A   Clear
4:15 AM 68.0 °F - 68.0 °F 100% 30.06 in 10.0 mi North - - N/A   Scattered Clouds
4:35 AM 68.0 °F - 68.0 °F 100% 30.06 in 5.0 mi North - - N/A   Clear
4:55 AM 66.2 °F - 66.2 °F 100% 30.06 in 3.0 mi North - - N/A   Scattered Clouds
5:15 AM 66.2 °F - 66.2 °F 100% 30.07 in 7.0 mi North - - N/A   Scattered Clouds
5:35 AM 66.2 °F - 66.2 °F 100% 30.08 in 4.0 mi North - - N/A   Mostly Cloudy
5:55 AM 68.0 °F - 68.0 °F 100% 30.08 in 5.0 mi North - - N/A   Overcast
6:15 AM 68.0 °F - 68.0 °F 100% 30.09 in 10.0 mi North - - N/A   Overcast
6:35 AM 66.2 °F - 66.2 °F 100% 30.09 in 7.0 mi North - - N/A   Overcast
6:55 AM 66.2 °F - 66.2 °F 100% 30.10 in 0.2 mi North - - N/A   Overcast
7:15 AM 66.2 °F - 66.2 °F 100% 30.10 in 0.2 mi North - - N/A   Overcast
7:35 AM 66.2 °F - 66.2 °F 100% 30.11 in 2.0 mi North - - N/A   Overcast
7:55 AM 68.0 °F - 68.0 °F 100% 30.12 in 4.0 mi North - - N/A   Overcast
8:15 AM 68.0 °F - 68.0 °F 100% 30.12 in 4.0 mi North - - N/A   Overcast
8:35 AM 68.0 °F - 68.0 °F 100% 30.12 in 10.0 mi North - - N/A   Overcast
8:55 AM 68.0 °F - 68.0 °F 100% 30.12 in 10.0 mi North - - N/A   Overcast
9:15 AM 69.8 °F - 68.0 °F 94% 30.13 in 10.0 mi North - - N/A   Overcast
9:35 AM 69.8 °F - 68.0 °F 94% 30.13 in 10.0 mi North - - N/A   Overcast
9:55 AM 71.6 °F - 68.0 °F 88% 30.13 in 10.0 mi North - - N/A   Overcast
10:15 AM 71.6 °F - 68.0 °F 88% 30.13 in 10.0 mi North - - N/A   Overcast
10:35 AM 71.6 °F - 68.0 °F 88% 30.13 in 10.0 mi North - - N/A   Mostly Cloudy
10:55 AM 73.4 °F - 68.0 °F 83% 30.13 in 10.0 mi North - - N/A   Scattered Clouds
11:15 AM 73.4 °F - 68.0 °F 83% 30.13 in 10.0 mi North - - N/A   Clear
11:35 AM 75.2 °F - 68.0 °F 78% 30.14 in 10.0 mi North - - N/A   Clear
11:55 AM 77.0 °F - 68.0 °F 74% 30.13 in 10.0 mi North - - N/A   Scattered Clouds
12:15 PM 77.0 °F - 68.0 °F 74% 30.13 in 10.0 mi North - - N/A   Scattered Clouds
12:35 PM 78.8 °F - 68.0 °F 69% 30.12 in 10.0 mi North - - N/A   Overcast
12:55 PM 78.8 °F - 68.0 °F 69% 30.12 in 10.0 mi North - - N/A   Overcast
1:15 PM 77.0 °F - 68.0 °F 74% 30.12 in 10.0 mi North - - N/A   Overcast
1:35 PM 78.8 °F - 68.0 °F 69% 30.12 in 10.0 mi North - - N/A   Mostly Cloudy
1:55 PM 78.8 °F - 66.2 °F 65% 30.12 in 10.0 mi North - - N/A   Scattered Clouds
2:15 PM 78.8 °F - 68.0 °F 69% 30.12 in 10.0 mi North - - N/A   Clear
2:35 PM 78.8 °F - 68.0 °F 69% 30.12 in 10.0 mi North - - N/A   Clear
2:55 PM 80.6 °F 82.3 °F 64.4 °F 58% 30.12 in 10.0 mi North - - N/A   Clear
3:15 PM 80.6 °F 82.7 °F 66.2 °F 61% 30.11 in 10.0 mi North - - N/A   Scattered Clouds
3:35 PM 82.4 °F 84.6 °F 66.2 °F 58% 30.10 in 10.0 mi North - - N/A   Scattered Clouds
3:55 PM 82.4 °F 83.9 °F 64.4 °F 54% 30.09 in 10.0 mi North - - N/A   Scattered Clouds
4:15 PM 82.4 °F 83.9 °F 64.4 °F 54% 30.08 in 10.0 mi North - - N/A   Clear
4:35 PM 82.4 °F 83.9 °F 64.4 °F 54% 30.07 in 10.0 mi North - - N/A   Clear
4:55 PM 82.4 °F 83.9 °F 64.4 °F 54% 30.07 in 10.0 mi North - - N/A   Clear
5:15 PM 84.2 °F 85.6 °F 64.4 °F 51% 30.07 in 10.0 mi North - - N/A   Clear
5:35 PM 82.4 °F 83.9 °F 64.4 °F 54% 30.07 in 10.0 mi North - - N/A   Clear
5:55 PM 82.4 °F 83.9 °F 64.4 °F 54% 30.07 in 10.0 mi North - - N/A   Clear
6:15 PM 82.4 °F 83.9 °F 64.4 °F 54% 30.06 in 10.0 mi North - - N/A   Clear
6:35 PM 80.6 °F 82.7 °F 66.2 °F 61% 30.06 in 10.0 mi North - - N/A   Scattered Clouds
6:55 PM 80.6 °F 83.2 °F 68.0 °F 65% 30.07 in 10.0 mi North - - N/A   Overcast
7:15 PM 78.8 °F - 68.0 °F 69% 30.07 in 10.0 mi North - - N/A   Overcast
7:55 PM 77.0 °F - 69.8 °F 78% 30.08 in 10.0 mi North - - N/A   Mostly Cloudy
8:15 PM 75.2 °F - 69.8 °F 83% 30.09 in 10.0 mi North - - N/A   Overcast
8:35 PM 73.4 °F - 71.6 °F 94% 30.10 in 10.0 mi North - - N/A   Scattered Clouds
8:55 PM 71.6 °F - 71.6 °F 100% 30.10 in 10.0 mi North - - N/A   Clear
9:15 PM 71.6 °F - 71.6 °F 100% 30.11 in 10.0 mi North - - N/A   Clear
9:35 PM 71.6 °F - 71.6 °F 100% 30.12 in 10.0 mi North - - N/A   Clear
9:55 PM 71.6 °F - 71.6 °F 100% 30.13 in 10.0 mi North - - N/A   Clear
10:15 PM 71.6 °F - 71.6 °F 100% 30.13 in 7.0 mi North - - N/A   Clear
10:35 PM 69.8 °F - 69.8 °F 100% 30.13 in 7.0 mi North - - N/A   Clear
10:55 PM 69.8 °F - 69.8 °F 100% 30.12 in 7.0 mi North - - N/A   Scattered Clouds
11:15 PM 69.8 °F - 69.8 °F 100% 30.13 in 3.0 mi North - - N/A   Overcast
11:55 PM 69.8 °F - 69.8 °F 100% 30.13 in 5.0 mi North - - N/A   Scattered Clouds